Gillette, WY

2:39 AM MST on November 22, 2017 (GMT -0700)
Gillette-Campbell County

Weather History for KGCC - July, 2013

Change the Weather History Date:

Saturday, July 27, 2013

  Actual Average Record
Temperature  
Mean Temperature 68 °F 72 °F  
Max Temperature 80 °F 88 °F 103 °F (1931)
Min Temperature 56 °F 57 °F 42 °F (1971)
Degree Days  
Heating Degree Days 0 0  
Month to date heating degree days 0 14  
Since 1 June heating degree days 117 156  
Since 1 July heating degree days 0 14  
Cooling Degree Days 3 8  
Month to date cooling degree days 205 184  
Year to date cooling degree days 259 252  
Since 1 June cooling degree days 251 244  
Growing Degree Days 17 (Base 50)    
Moisture  
Dew Point 48 °F    
Average Humidity 55    
Maximum Humidity 77    
Minimum Humidity 32    
Precipitation  
Precipitation T in 0.05 in 0.93 in (1962)
Month to date precipitation 2.38 1.46  
Year to date precipitation 11.93 9.33  
Sea Level Pressure  
Sea Level Pressure 29.95 in    
Wind  
Wind Speed 13 mph (SSE)    
Max Wind Speed 29 mph    
Max Gust Speed 33 mph    
Visibility 10 miles    
Events      
T = Trace of Precipitation, MM = Missing Value Source: NWS Daily Summary

Daily Weather History Graph

Daily Weather History Graph

Search for Another Location

Airport or City:

Trip Planner

Search our weather history database for the weather conditions in past years. The results will help you decide how hot, cold, wet, or windy it might be!

Date:

Astronomy

Jul. 27, 2013 Rise Set
Actual Time 5:44 AM MDT 8:32 PM MDT
Civil Twilight 5:10 AM MDT 9:06 PM MDT
Nautical Twilight 4:27 AM MDT 9:48 PM MDT
Astronomical Twilight 3:37 AM MDT 10:38 PM MDT
Moon 11:04 PM MDT (7/27) 11:43 AM MDT (7/27)
Length of Visible Light 15h 55m
Length of Day
14h 48m
Waning Gibbous, 70% of the Moon is Illuminated
Jul 27
Waning Gibbous
Jul 29
Last Quarter
Aug 6
New
Aug 14
First Quarter
Aug 20
Full

Hourly Weather History & Observations

Time (MDT) Temp. Dew Point Humidity Pressure Visibility Wind Dir Wind Speed Gust Speed Precip Events Conditions
12:53 AM 61.0 °F 48.9 °F 64% 30.04 in 10.0 mi SSE 13.8 mph - N/A   Clear
1:53 AM 60.1 °F 48.0 °F 64% 30.03 in 10.0 mi South 11.5 mph - N/A   Clear
2:53 AM 59.0 °F 46.0 °F 62% 30.02 in 10.0 mi Variable 6.9 mph - N/A   Clear
3:53 AM 57.0 °F 45.0 °F 64% 30.02 in 10.0 mi ESE 8.1 mph - N/A   Clear
4:53 AM 55.9 °F 44.1 °F 64% 30.02 in 10.0 mi SE 8.1 mph - N/A   Clear
5:53 AM 55.9 °F 44.1 °F 64% 30.01 in 10.0 mi SSE 13.8 mph 19.6 mph N/A   Clear
6:53 AM 55.9 °F 45.0 °F 67% 30.06 in 10.0 mi South 9.2 mph - N/A   Partly Cloudy
7:53 AM 55.9 °F 46.9 °F 72% 30.01 in 10.0 mi SSE 16.1 mph - 0.00 in   Scattered Clouds
8:53 AM 60.1 °F 46.9 °F 62% 30.04 in 10.0 mi SE 18.4 mph - N/A   Clear
9:53 AM 62.1 °F 48.0 °F 60% 30.03 in 10.0 mi SSE 16.1 mph - N/A   Mostly Cloudy
10:53 AM 69.1 °F 48.9 °F 49% 29.96 in 10.0 mi South 25.3 mph 32.2 mph N/A   Mostly Cloudy
11:53 AM 73.0 °F 48.9 °F 42% 29.94 in 10.0 mi SSE 18.4 mph - N/A   Overcast
12:53 PM 78.1 °F 48.9 °F 36% 29.91 in 10.0 mi SE 17.3 mph - N/A   Partly Cloudy
1:53 PM 79.0 °F 46.0 °F 31% 29.89 in 10.0 mi SSE 10.4 mph - N/A   Clear
2:53 PM 75.9 °F 48.0 °F 37% 29.90 in 10.0 mi SSE 18.4 mph 23.0 mph N/A   Clear
3:53 PM 77.0 °F 50.0 °F 39% 29.91 in 10.0 mi SSE 18.4 mph 23.0 mph N/A   Clear
4:53 PM 73.9 °F 50.0 °F 43% 29.90 in 10.0 mi SE 19.6 mph 26.5 mph N/A   Clear
5:53 PM 73.0 °F 50.0 °F 44% 29.89 in 10.0 mi SSE 15.0 mph 24.2 mph N/A   Clear
6:53 PM 73.9 °F 46.0 °F 37% 29.88 in 10.0 mi South 15.0 mph - N/A   Clear
7:53 PM 72.0 °F 46.9 °F 41% 29.88 in 10.0 mi South 15.0 mph - N/A   Clear
8:53 PM 64.9 °F 46.0 °F 50% 29.88 in 10.0 mi SSE 8.1 mph - N/A   Clear
9:53 PM 61.0 °F 50.0 °F 67% 29.90 in 10.0 mi South 6.9 mph - N/A   Clear
10:53 PM 61.0 °F 50.0 °F 67% 29.88 in 10.0 mi South 8.1 mph - N/A   Clear
11:53 PM 57.0 °F 50.0 °F 77% 29.86 in 10.0 mi SSE 3.5 mph - N/A   Clear